User: anonymous   Login
Location: Starry Hill Observatory
(46.8582°N, 122.3590°W)
Time: 18:03:25
(UTC-07:00)
Language:

Cosmos 1300 Rocket - Orbit

View from above orbital plane
View from above orbital plane
View from above satellite
View from above satellite

Ground track
Ground track

The orbit data is extracted from the following two-line orbital elements,

1 12786U 81082B   16205.30268016  .00000102  00000-0  91978-5 0  9995
2 12786  82.4893 277.6586 0016063 259.6478 100.2927 14.84628239886019
Epoch (UTC): 23 July 2016 07:15:51
Eccentricity: 0.0016063
inclination: 82.4893°
perigee height: 603 km
apogee height: 626 km
right ascension of ascending node: 277.6586°
argument of perigee: 259.6478°
revolutions per day: 14.84628239
mean anomaly at epoch: 100.2927°
orbit number at epoch: 88601

The dashed part of the orbit path shows where the satellite is in the earth's shadow,  

DLR